Weather Roundup
Issued by NWS Springfield, MO

Home | Current Version | Previous Version | Text Only | Print | Product List | Glossary On
Versions: 1 2 3 4 5 6 7 8 9 10 11 12 13 14 15 16 17 18 19 20 21 22 23 24 25 26 27 28 29 30 31 32 33 34 35 36 37 38 39 40 41 42 43 44 45 46 47 48 49 50
629
NZUS99 KSGF 282007
HRRSGF

HOURLY WEATHER
NATIONAL WEATHER SERVICE SPRINGFIELD MO
300 PM CDT SAT MAY 28 2016

......SGF CWA......

CITY           SKY/WX    TMP DP  RH WIND       PRES   REMARKS
SPRINGFIELD    MOSUNNY   79  64  60 SW14      29.96S
JOPLIN         PTSUNNY   76  64  66 S12       29.95R
WEST PLAINS    MOSUNNY   79  65  62 S10       30.00R
ROLLA          MOSUNNY   81  68  64 S13       29.92S

......SURROUNDING SGF CWA......

CITY           SKY/WX    TMP DP  RH WIND       PRES   REMARKS
CHANUTE        MOSUNNY   79  61  53 SW15      29.93R
PARSONS        SUNNY     79  61  53 W9        29.95S
COFFEYVILLE    SUNNY     80  61  52 W10       29.93S
EMPORIA        PTSUNNY   73  58  59 W6        29.93R
GROVE OK       PTSUNNY   77  66  69 S8        29.98S
ROGERS AR      MOSUNNY   79  66  64 SW12      29.99R
SILOAM SPRINGS PTSUNNY   77  61  57 S10       29.99S
HARRISON AR    MOSUNNY   83  67  58 S12G17    29.98S
NEAR YELLVILLE MOSUNNY  N/A N/A N/A SW7       29.94R

......KANSAS AND MISSOURI......

CITY           SKY/WX    TMP DP  RH WIND       PRES   REMARKS
KANSAS CTY INT PTSUNNY   74  59  59 SW17      29.89R
DOWNTOWN KC    MOSUNNY   77  58  51 SW15G21   29.89R
COLUMBIA       MOSUNNY   83  63  50 SW20G26   29.90S
SEDALIA        PTSUNNY   78  62  57 SW16G22   29.92S
ST JOSEPH      MOSUNNY   75  59  57 W14       29.87R
ST LOUIS       CLOUDY    84  65  52 S17       29.93R
SPIRIT OF STL  PTSUNNY   85  67  54 S13G20    29.90F
KIRKSVILLE     LGT RAIN  75  62  64 SW15      29.87S
WICHITA        MOSUNNY   80  55  42 NW13      29.93S
TOPEKA         SUNNY     75  59  57 W7G17     29.90R
OLATHE         MOSUNNY   74  58  57 W13G20    29.91R

......TENNESSEE......

CITY           SKY/WX    TMP DP  RH WIND       PRES   REMARKS
MEMPHIS        CLOUDY    83  68  60 S8        30.01S
NASHVILLE      CLOUDY    80  64  58 S10       30.10R

......ARKANSAS.......

CITY           SKY/WX    TMP DP  RH WIND       PRES   REMARKS
FAYETTEVILLE   SUNNY     80  67  64 SW10      29.97S
FT SMITH       SUNNY     83  65  54 SE7       29.95F
LITTLE ROCK    PTSUNNY   83  65  54 SW9       30.00S

......OKLAHOMA.......

CITY           SKY/WX    TMP DP  RH WIND       PRES   REMARKS
TULSA          MOSUNNY   80  63  55 SE3       29.92S
PONCA CITY     SUNNY     80  56  43 SW5       29.93S
MCALESTER      SUNNY     82  66  58 SW8       29.96S
OKLAHOMA CITY  MOSUNNY   82  59  45 S7        29.95S

......IOWA............

CITY           SKY/WX    TMP DP  RH WIND       PRES   REMARKS
DES MOINES     PTSUNNY   70  62  76 SW10      29.79S
QUAD CITIES    SUNNY     84  65  52 S18G29    29.80F

......ILLINOIS........

CITY           SKY/WX    TMP DP  RH WIND       PRES   REMARKS
QUINCY         CLOUDY    81  65  58 S20G26    29.86S
CHICAGO        PTSUNNY   78  65  63 S20G25    29.90F




USA.gov is the U.S. government's official web portal to all federal, state and local government web resources and services.